Location: Unspecified
(0.0000°N, 0.0000°E)
Time: 22:25:48
(UTC+00:00)

SL-14 DEB - Visible Passes

Search period start: 05 June 2026 00:00
Search period end: 15 June 2026 00:00
Orbit: 1127 x 1293 km, 82.6° (Epoch: 5 June)

Date Brightness Start Highest point End Pass type
(mag) Time Alt. Az. Time Alt. Az. Time Alt. Az.
5 Jun ? 18:44:26 10° SSE 18:51:24 47° E 18:58:06 10° NNE visible
5 Jun ? 20:37:27 10° WSW 20:41:28 16° W 20:45:27 10° NW visible
6 Jun ? 18:30:37 10° SSE 18:37:20 40° E 18:43:49 10° NNE visible
6 Jun ? 20:22:40 10° SW 20:27:26 19° W 20:32:07 10° NW visible
7 Jun ? 18:16:50 10° SSE 18:23:17 34° E 18:29:29 10° NNE visible
7 Jun ? 20:08:03 10° SW 20:13:23 22° W 20:18:38 10° NW visible
8 Jun ? 19:53:33 10° SW 19:59:20 26° W 20:05:01 10° NNW visible
9 Jun ? 19:39:08 10° SSW 19:45:18 31° W 19:51:20 10° NNW visible
10 Jun ? 19:24:47 10° SSW 19:31:15 36° W 19:37:34 10° NNW visible
11 Jun ? 05:28:12 10° NE 05:33:34 21° E 05:38:59 10° SE visible
11 Jun ? 19:10:30 10° SSW 19:17:12 43° W 19:23:44 10° NNW visible
12 Jun ? 05:14:49 10° NE 05:19:32 18° E 05:24:18 10° SE visible
12 Jun ? 18:56:16 10° SSW 19:03:09 50° W 19:09:51 10° NNW visible
13 Jun ? 05:01:38 10° ENE 05:05:30 15° E 05:09:24 10° ESE visible
13 Jun ? 18:42:05 10° SSW 18:49:06 59° W 18:55:56 10° N visible
14 Jun ? 04:48:51 10° ENE 04:51:28 12° E 04:54:06 10° ESE visible
14 Jun ? 18:27:57 10° S 18:35:03 69° W 18:41:57 10° N visible
